Tri-Cities, TN

8:02 PM EST on December 05, 2019 (GMT -0500)
Tri-Cities Regional Tennessee / Virginia

Weather History for KTRI - October, 2019

Change the Weather History Date:

Saturday, October 5, 2019

  Actual Average Record
Temperature  
Mean Temperature 70 °F 60 °F  
Max Temperature 82 °F 72 °F 90 °F (1954)
Min Temperature 58 °F 47 °F 29 °F (1968)
Degree Days  
Heating Degree Days 0 6  
Month to date heating degree days 0 27  
Since 1 July heating degree days 0 80  
Cooling Degree Days 5 1  
Month to date cooling degree days 53 5  
Year to date cooling degree days 1438 973  
Growing Degree Days 20 (Base 50)    
Moisture  
Dew Point 53 °F    
Average Humidity 60    
Maximum Humidity 78    
Minimum Humidity 42    
Precipitation  
Precipitation 0.00 in 0.07 in 1.29 in (1937)
Month to date precipitation 0.00 0.34  
Year to date precipitation 41.61 32.78  
Snow  
Snow 0.00 in 0.00 in - ()
Month to date snowfall 0.0 0.0  
Since 1 July snowfall 0.0 0.0  
Since 1 September snowfall 0.0 0.0  
Snow Depth 0.00 in    
Sea Level Pressure  
Sea Level Pressure 30.09 in    
Wind  
Wind Speed 7 mph (SE)    
Max Wind Speed 17 mph    
Max Gust Speed 23 mph    
Visibility 10 miles    
Events      
T = Trace of Precipitation, MM = Missing Value Source: NWS Daily Summary

Daily Weather History Graph

Daily Weather History Graph

Search for Another Location

Airport or City:

Astronomy

Oct. 05, 2019 Rise Set
Actual Time 7:27 AM EDT 7:07 PM EDT
Civil Twilight 7:02 AM EDT 7:33 PM EDT
Nautical Twilight 6:32 AM EDT 8:03 PM EDT
Astronomical Twilight 6:02 AM EDT 8:33 PM EDT
Moon 2:43 PM EDT (10/5) No Moon Set
Length of Visible Light 12h 31m
Length of Day
11h 39m
Waxing Crescent, 50% of the Moon is Illuminated
Oct 5
Waxing Crescent
Oct 5
First Quarter
Oct 13
Full
Oct 21
Last Quarter
Oct 27
New

Hourly Weather History & Observations

Time (EDT) Temp. Heat Index Dew Point Humidity Pressure Visibility Wind Dir Wind Speed Gust Speed Precip Events Conditions
12:53 AM 62.1 °F - 48.0 °F 60% 30.10 in 10.0 mi Calm Calm - N/A   Mostly Cloudy
1:53 AM 60.1 °F - 48.9 °F 67% 30.08 in 10.0 mi Calm Calm - N/A   Clear
2:53 AM 61.0 °F - 46.9 °F 60% 30.07 in 10.0 mi Calm Calm - N/A   Clear
3:53 AM 59.0 °F - 46.9 °F 64% 30.06 in 10.0 mi Calm Calm - N/A   Clear
4:53 AM 61.0 °F - 46.9 °F 60% 30.06 in 10.0 mi Calm Calm - N/A   Clear
5:53 AM 60.1 °F - 46.9 °F 62% 30.07 in 10.0 mi Calm Calm - N/A   Partly Cloudy
6:53 AM 59.0 °F - 50.0 °F 72% 30.09 in 10.0 mi Calm Calm - N/A   Scattered Clouds
7:53 AM 60.1 °F - 53.1 °F 78% 30.11 in 10.0 mi Calm Calm - N/A   Scattered Clouds
8:53 AM 66.9 °F - 55.0 °F 66% 30.11 in 10.0 mi ESE 8.1 mph - N/A   Partly Cloudy
9:53 AM 71.1 °F - 54.0 °F 55% 30.12 in 10.0 mi ESE 12.7 mph - N/A   Partly Cloudy
10:53 AM 73.9 °F - 55.0 °F 52% 30.12 in 10.0 mi ESE 12.7 mph 18.4 mph N/A   Partly Cloudy
11:53 AM 75.9 °F - 55.0 °F 48% 30.12 in 10.0 mi SE 9.2 mph - N/A   Partly Cloudy
12:53 PM 80.1 °F 80.2 °F 55.9 °F 43% 30.09 in 10.0 mi SE 10.4 mph - N/A   Clear
1:53 PM 80.1 °F 80.4 °F 57.0 °F 45% 30.07 in 10.0 mi ESE 10.4 mph - N/A   Clear
2:53 PM 82.0 °F 82.0 °F 57.9 °F 44% 30.05 in 10.0 mi South 9.2 mph - N/A   Partly Cloudy
3:53 PM 80.1 °F 80.6 °F 57.9 °F 47% 30.05 in 10.0 mi SE 9.2 mph - N/A   Scattered Clouds
4:53 PM 78.1 °F - 57.9 °F 50% 30.05 in 10.0 mi SSE 10.4 mph - N/A   Partly Cloudy
5:53 PM 73.9 °F - 57.0 °F 55% 30.06 in 10.0 mi SE 12.7 mph - N/A   Partly Cloudy
6:53 PM 70.0 °F - 55.0 °F 59% 30.08 in 10.0 mi SE 9.2 mph - N/A   Scattered Clouds
7:53 PM 66.9 °F - 54.0 °F 63% 30.10 in 10.0 mi SE 8.1 mph - N/A   Mostly Cloudy
8:53 PM 66.0 °F - 53.1 °F 63% 30.11 in 10.0 mi ESE 9.2 mph - N/A   Mostly Cloudy
9:53 PM 66.0 °F - 54.0 °F 65% 30.12 in 10.0 mi SE 8.1 mph - N/A   Overcast
10:53 PM 66.0 °F - 54.0 °F 65% 30.13 in 10.0 mi SE 9.2 mph - N/A   Overcast
11:53 PM 64.9 °F - 54.0 °F 68% 30.13 in 10.0 mi SE 4.6 mph - N/A   Mostly Cloudy